Connellys Springs, NC

7:48 AM EDT on September 25, 2016 (GMT -0400)
Morganton-Lenoir

Weather History for KMRN - January, 2014

Change the Weather History Date:

Monday, January 6, 2014

  Actual Average (KHKY) Record (KHKY)
Temperature  
Mean Temperature 23 °F -  
Max Temperature 39 °F 46 °F 72 °F (1955)
Min Temperature 7 °F 30 °F 8 °F (2014)
Degree Days  
Heating Degree Days 42    
Moisture  
Dew Point 15 °F    
Average Humidity 62    
Maximum Humidity 100    
Minimum Humidity 31    
Precipitation  
Precipitation 0.06 in - - ()
Sea Level Pressure  
Sea Level Pressure 29.95 in    
Wind  
Wind Speed 6 mph (WNW)    
Max Wind Speed 21 mph    
Max Gust Speed 33 mph    
Visibility 8 miles    
Events Rain    
Averages and records for this station are not official NWS values.
T = Trace of Precipitation, MM = Missing Value Source: NWS Daily Summary

Daily Weather History Graph

Daily Weather History Graph

Search for Another Location

Airport or City:

Trip Planner

Search our weather history database for the weather conditions in past years. The results will help you decide how hot, cold, wet, or windy it might be!

Date:

Astronomy

Jan. 06, 2014 Rise Set
Actual Time 7:37 AM EST 5:27 PM EST
Civil Twilight 7:08 AM EST 5:56 PM EST
Nautical Twilight 6:37 AM EST 6:27 PM EST
Astronomical Twilight 6:06 AM EST 6:58 PM EST
Moon 11:04 AM EST (1/6) 11:46 PM EST (1/6)
Length of Visible Light 10h 47m
Length of Day
9h 50m
Waxing Crescent, 34% of the Moon is Illuminated
Jan 6
Waxing Crescent
Jan 7
First Quarter
Jan 15
Full
Jan 24
Last Quarter
Jan 30
New

Hourly Weather History & Observations

Time (EST) Temp. Windchill Dew Point Humidity Pressure Visibility Wind Dir Wind Speed Gust Speed Precip Events Conditions
12:15 AM 37.9 °F - 37.9 °F 100% 29.77 in 0.5 mi Calm Calm - N/A Rain Rain
12:35 AM 38.5 °F - 38.5 °F 100% 29.75 in 3.0 mi Calm Calm - N/A   Drizzle
12:55 AM 38.7 °F - 38.7 °F 100% 29.74 in 4.0 mi Calm Calm - N/A   Overcast
1:15 AM 38.5 °F 33.4 °F 38.5 °F 100% 29.73 in 2.0 mi WNW 6.9 mph - N/A   Drizzle
1:35 AM 38.3 °F - 38.3 °F 100% 29.71 in 0.8 mi Calm Calm - N/A Rain Rain
1:55 AM 38.5 °F - 38.5 °F 100% 29.71 in 4.0 mi Calm Calm - N/A   Overcast
2:15 AM 38.5 °F 36.1 °F 38.5 °F 100% 29.72 in 1.2 mi SW 3.5 mph - 0.04 in Rain Light Rain
2:35 AM 38.3 °F - 38.3 °F 100% 29.71 in 2.5 mi Calm Calm - 0.06 in Rain Light Rain
2:55 AM 38.3 °F - 38.3 °F 100% 29.70 in 2.5 mi Calm Calm - 0.06 in Rain Light Rain
3:15 AM 38.5 °F 36.1 °F 38.5 °F 100% 29.72 in 4.0 mi NW 3.5 mph - N/A   Overcast
3:35 AM 39.2 °F 37.0 °F 39.2 °F 100% 29.71 in 7.0 mi West 3.5 mph - N/A Rain Light Rain
3:55 AM 39.2 °F - 39.2 °F 100% 29.72 in 5.0 mi Calm Calm - N/A   Overcast
4:15 AM 38.8 °F - 38.8 °F 100% 29.71 in 4.0 mi Calm Calm - N/A   Overcast
4:35 AM 38.8 °F - 38.8 °F 100% 29.71 in 3.0 mi Calm Calm - N/A   Overcast
4:55 AM 39.0 °F - 39.0 °F 100% 29.72 in 5.0 mi Calm Calm - N/A   Overcast
5:15 AM 38.8 °F - 38.8 °F 100% 29.72 in 4.0 mi Calm Calm - N/A   Overcast
5:35 AM 38.3 °F - 38.3 °F 100% 29.73 in 3.0 mi Calm Calm - N/A   Overcast
5:55 AM 38.3 °F 34.8 °F 38.3 °F 100% 29.74 in 10.0 mi WNW 4.6 mph - N/A   Overcast
6:15 AM 36.7 °F 32.9 °F 36.7 °F 100% 29.74 in 10.0 mi WNW 4.6 mph - N/A   Scattered Clouds
6:35 AM 36.5 °F 33.9 °F 36.5 °F 100% 29.75 in 10.0 mi WNW 3.5 mph - N/A   Clear
6:55 AM 36.5 °F 31.8 °F 31.1 °F 81% 29.77 in 10.0 mi West 5.8 mph - N/A   Mostly Cloudy
7:15 AM 35.8 °F 33.0 °F 29.3 °F 77% 29.79 in 10.0 mi WNW 3.5 mph - N/A   Scattered Clouds
7:35 AM 35.4 °F 27.8 °F 26.6 °F 70% 29.81 in 10.0 mi WNW 10.4 mph - N/A   Clear
7:55 AM 34.7 °F 28.1 °F 25.2 °F 68% 29.82 in 10.0 mi WNW 8.1 mph - N/A   Clear
8:15 AM 34.5 °F 26.2 °F 23.7 °F 65% 29.84 in 10.0 mi WNW 11.5 mph - N/A   Clear
8:35 AM 33.8 °F 24.8 °F 21.6 °F 61% 29.85 in 10.0 mi WNW 12.7 mph 20.7 mph N/A   Clear
8:55 AM 32.9 °F 24.1 °F 19.4 °F 58% 29.88 in 10.0 mi NW 11.5 mph 20.7 mph N/A   Clear
9:15 AM 32.4 °F 23.5 °F 17.6 °F 55% 29.90 in 10.0 mi WNW 11.5 mph 18.4 mph N/A   Clear
9:35 AM 32.2 °F 24.4 °F 17.8 °F 55% 29.90 in 10.0 mi NW 9.2 mph 19.6 mph N/A   Clear
9:55 AM 32.0 °F 22.5 °F 16.0 °F 52% 29.91 in 10.0 mi NNW 12.7 mph 20.7 mph N/A   Clear
10:15 AM 32.2 °F 21.4 °F 14.7 °F 49% 29.92 in 10.0 mi NW 16.1 mph 25.3 mph N/A   Clear
10:35 AM 32.0 °F 21.2 °F 13.6 °F 47% 29.93 in 10.0 mi NW 16.1 mph 25.3 mph N/A   Clear
10:55 AM 32.9 °F 23.2 °F 14.9 °F 48% 29.93 in 10.0 mi NNW 13.8 mph 23.0 mph N/A   Clear
11:15 AM 33.1 °F 24.4 °F 14.4 °F 46% 29.93 in 10.0 mi NW 11.5 mph 21.9 mph N/A   Clear
11:35 AM 32.7 °F 21.8 °F 13.6 °F 45% 29.93 in 10.0 mi NW 17.3 mph 23.0 mph N/A   Clear
11:55 AM 33.1 °F 24.9 °F 14.4 °F 46% 29.92 in 10.0 mi NNW 10.4 mph 21.9 mph N/A   Clear
12:15 PM 33.8 °F 26.4 °F 14.9 °F 46% 29.92 in 10.0 mi West 9.2 mph - N/A   Clear
12:35 PM 33.4 °F 25.4 °F 13.8 °F 45% 29.92 in 10.0 mi NW 10.4 mph - N/A   Clear
12:55 PM 33.1 °F 21.9 °F 12.7 °F 43% 29.93 in 10.0 mi West 18.4 mph 23.0 mph N/A   Clear
1:15 PM 32.2 °F 21.4 °F 12.9 °F 45% 29.93 in 10.0 mi West 16.1 mph 21.9 mph N/A   Clear
1:35 PM 31.6 °F 19.3 °F 10.9 °F 42% 29.95 in 10.0 mi West 20.7 mph 33.4 mph N/A   Clear
1:55 PM 30.6 °F 18.2 °F 9.7 °F 42% 29.95 in 10.0 mi West 19.6 mph 31.1 mph N/A   Clear
2:15 PM 29.8 °F 18.0 °F 8.4 °F 41% 29.95 in 10.0 mi WNW 17.3 mph 29.9 mph N/A   Clear
2:35 PM 30.2 °F 20.8 °F 8.6 °F 40% 29.96 in 10.0 mi WNW 11.5 mph 28.8 mph N/A   Clear
2:55 PM 29.7 °F 17.8 °F 7.9 °F 40% 29.97 in 10.0 mi West 17.3 mph 25.3 mph N/A   Clear
3:15 PM 29.5 °F 17.6 °F 7.2 °F 39% 29.98 in 10.0 mi West 17.3 mph 24.2 mph N/A   Clear
3:35 PM 28.6 °F 16.4 °F 6.6 °F 39% 30.00 in 10.0 mi WNW 17.3 mph 26.5 mph N/A   Clear
3:55 PM 27.9 °F 16.3 °F 5.5 °F 39% 30.01 in 10.0 mi WNW 15.0 mph 21.9 mph N/A   Clear
4:15 PM 26.1 °F 13.1 °F 4.1 °F 39% 30.02 in 10.0 mi West 17.3 mph 29.9 mph N/A   Clear
4:35 PM 23.9 °F 9.1 °F 0.3 °F 36% 30.04 in 10.0 mi WNW 20.7 mph 29.9 mph N/A   Clear
4:55 PM 20.7 °F 6.1 °F -5.8 °F 31% 30.06 in 10.0 mi WNW 17.3 mph 33.4 mph N/A   Clear
5:15 PM 18.7 °F 2.7 °F -7.8 °F 31% 30.09 in 10.0 mi WNW 19.6 mph 33.4 mph N/A   Clear
5:35 PM 17.2 °F 3.9 °F -6.2 °F 35% 30.10 in 10.0 mi West 12.7 mph 19.6 mph N/A   Clear
5:55 PM 16.5 °F 2.4 °F -6.9 °F 35% 30.11 in 10.0 mi West 13.8 mph 20.7 mph N/A   Clear
6:15 PM 15.8 °F 6.1 °F -6.7 °F 37% 30.12 in 10.0 mi NW 6.9 mph - N/A   Clear
6:35 PM 14.0 °F 5.1 °F -4.9 °F 43% 30.14 in 10.0 mi NNW 5.8 mph - N/A   Clear
6:55 PM 13.8 °F 8.0 °F -5.3 °F 43% 30.15 in 10.0 mi NNW 3.5 mph - N/A   Clear
7:15 PM 12.9 °F 5.2 °F -6.2 °F 42% 30.17 in 10.0 mi North 4.6 mph - N/A   Clear
7:35 PM 12.9 °F 2.6 °F -6.3 °F 42% 30.19 in 10.0 mi WNW 6.9 mph - N/A   Clear
7:55 PM 12.2 °F -1.0 °F -7.1 °F 42% 30.20 in 10.0 mi West 10.4 mph - N/A   Clear
8:15 PM 12.0 °F 2.7 °F -7.2 °F 42% 30.21 in 10.0 mi WNW 5.8 mph - N/A   Clear
8:35 PM 11.3 °F 5.1 °F -8.1 °F 41% 30.22 in 10.0 mi NNW 3.5 mph - N/A   Clear
8:55 PM 10.8 °F - -6.7 °F 45% 30.23 in 10.0 mi Calm Calm - N/A   Clear
9:15 PM 10.8 °F 1.2 °F -6.7 °F 45% 30.24 in 10.0 mi WNW 5.8 mph - N/A   Clear
9:35 PM 10.6 °F 1.0 °F -8.0 °F 43% 30.24 in 10.0 mi WNW 5.8 mph - N/A   Clear
9:55 PM 10.4 °F 0.8 °F -6.0 °F 48% 30.25 in 10.0 mi West 5.8 mph - N/A   Clear
10:15 PM 9.9 °F 3.4 °F -6.7 °F 47% 30.25 in 10.0 mi WNW 3.5 mph - N/A   Clear
10:35 PM 9.1 °F 0.8 °F -7.6 °F 47% 30.25 in 10.0 mi NW 4.6 mph - N/A   Clear
10:55 PM 9.1 °F 2.6 °F -8.0 °F 46% 30.24 in 10.0 mi WNW 3.5 mph - N/A   Clear
11:15 PM 7.5 °F - -5.4 °F 56% 30.25 in 10.0 mi Calm Calm - N/A   Clear
11:35 PM 7.7 °F - -8.7 °F 47% 30.24 in 10.0 mi Calm Calm - N/A   Clear
11:55 PM 7.2 °F - -4.9 °F 58% 30.25 in 10.0 mi Calm Calm - N/A   Clear